Location: Praha
(50.0830°N, 14.4670°E)
Time: 17:25:39
(UTC+02:00)

ISS - Pass Details

Date: 04 September 2024
Orbit: 414 x 424 km, 51.6° (Epoch: 16 September)

Event Time Altitude Azimuth Distance (km) Brightness Sun altitude
Exits shadow 05:21:08 11° 281° (W) 1,486 -1.5 -10.1°
Maximum altitude 05:24:19 45° 208° (SSW) 594 -3.3 -9.6°
Drops below altitude 10° 05:27:36 10° 135° (SE) 1,518 -0.6 -9.2°
Sets 05:29:45 0° 128° (SE) 2,382 0.5 -8.8°
